New York Downtown Manhattan/w, NY

4:22 AM EST on December 11, 2019 (GMT -0500)
New York Downtown Manhattan/w

Weather History for KJRB - August, 2019

Change the Weather History Date:

Monday, August 19, 2019

  Actual Average (KEWR) Record (KEWR)
Temperature  
Mean Temperature 83 °F -  
Max Temperature 91 °F 82 °F 96 °F (2002)
Min Temperature 75 °F 66 °F 54 °F (1958)
Cooling Degree Days 18    
Growing Degree Days 33 (Base 50)    
Moisture  
Dew Point 72 °F    
Average Humidity 76    
Maximum Humidity 89    
Minimum Humidity 59    
Precipitation  
Precipitation 0.00 in - - ()
Sea Level Pressure  
Sea Level Pressure 29.98 in    
Wind  
Wind Speed 4 mph (WSW)    
Max Wind Speed 10 mph    
Max Gust Speed 34 mph    
Visibility 10 miles    
Events      
Averages and records for this station are not official NWS values.
T = Trace of Precipitation, MM = Missing Value Source: NWS Daily Summary

Daily Weather History Graph

Daily Weather History Graph

Search for Another Location

Airport or City:

Astronomy

Aug. 19, 2019 Rise Set
Actual Time 6:10 AM EDT 7:48 PM EDT
Civil Twilight 5:41 AM EDT 8:17 PM EDT
Nautical Twilight 5:05 AM EDT 8:52 PM EDT
Astronomical Twilight 4:28 AM EDT 9:29 PM EDT
Moon 10:07 PM EDT (8/19) 9:49 AM EDT (8/19)
Length of Visible Light 14h 36m
Length of Day
13h 38m
Waning Gibbous, 85% of the Moon is Illuminated
Aug 19
Waning Gibbous
Aug 23
Last Quarter
Aug 30
New
Sep 5
First Quarter
Sep 14
Full

Hourly Weather History & Observations

Time (EDT) Temp. Heat Index Dew Point Humidity Pressure Visibility Wind Dir Wind Speed Gust Speed Precip Events Conditions
12:56 AM 75.9 °F - 68.0 °F 76% 29.96 in 10.0 mi NE 3.5 mph - N/A   Clear
1:56 AM 75.0 °F - 70.0 °F 84% 29.96 in 10.0 mi Calm Calm - N/A   Scattered Clouds
2:56 AM 75.9 °F - 70.0 °F 82% 29.95 in 10.0 mi WNW 3.5 mph - N/A   Clear
3:54 AM 75.2 °F - 69.8 °F 83% 29.98 in 10.0 mi Variable 3.5 mph - N/A   Mostly Cloudy
3:56 AM 75.9 °F - 70.0 °F 82% 29.98 in 10.0 mi West 3.5 mph - N/A   Mostly Cloudy
4:51 AM 75.2 °F - 71.6 °F 89% 29.98 in 10.0 mi West 4.6 mph - N/A   Scattered Clouds
4:56 AM 75.9 °F - 71.1 °F 85% 29.98 in 10.0 mi West 4.6 mph - N/A   Partly Cloudy
5:56 AM 75.0 °F - 69.1 °F 82% 30.00 in 10.0 mi West 4.6 mph - N/A   Clear
6:56 AM 75.0 °F - 70.0 °F 84% 30.01 in 10.0 mi Calm Calm - N/A   Clear
7:49 AM 75.2 °F - 71.6 °F 89% 30.00 in 9.0 mi SSW 3.5 mph - N/A   Scattered Clouds
7:56 AM 75.9 °F - 72.0 °F 87% 30.00 in 10.0 mi WSW 3.5 mph - N/A   Mostly Cloudy
8:12 AM 75.2 °F - 71.6 °F 89% 30.00 in 10.0 mi WSW 4.6 mph - N/A   Scattered Clouds
8:56 AM 78.1 °F - 73.0 °F 84% 30.00 in 9.0 mi WSW 4.6 mph - N/A   Clear
9:56 AM 79.0 °F - 73.9 °F 84% 30.00 in 10.0 mi Variable 6.9 mph - N/A   Clear
10:56 AM 82.9 °F 89.4 °F 73.9 °F 74% 30.00 in 9.0 mi WSW 6.9 mph - N/A   Clear
11:56 AM 86.0 °F 93.0 °F 73.0 °F 65% 29.99 in 9.0 mi Variable 5.8 mph - N/A   Clear
12:16 PM 87.8 °F 95.6 °F 73.4 °F 62% 29.99 in 8.0 mi SSW 8.1 mph - N/A   Partly Cloudy
12:56 PM 89.1 °F 97.0 °F 73.0 °F 59% 29.99 in 10.0 mi SSW 8.1 mph - N/A   Clear
1:56 PM 90.0 °F 100.2 °F 75.0 °F 61% 29.97 in 9.0 mi SW 6.9 mph - N/A   Clear
2:56 PM 91.0 °F 101.6 °F 75.0 °F 59% 29.95 in 10.0 mi West 10.4 mph 34.5 mph N/A   Clear
3:56 PM 88.0 °F 97.5 °F 75.0 °F 65% 29.94 in 10.0 mi Variable 5.8 mph - N/A   Partly Cloudy
4:56 PM 87.1 °F 92.8 °F 71.1 °F 59% 29.93 in 10.0 mi South 8.1 mph - N/A   Scattered Clouds
5:56 PM 82.9 °F 87.0 °F 70.0 °F 65% 29.98 in 10.0 mi SSW 5.8 mph - N/A   Scattered Clouds
6:56 PM 82.0 °F 85.9 °F 70.0 °F 67% 29.99 in 10.0 mi SW 5.8 mph - N/A   Clear
7:56 PM 80.1 °F 83.2 °F 70.0 °F 71% 29.98 in 10.0 mi Calm Calm - N/A   Partly Cloudy
8:56 PM 79.0 °F - 70.0 °F 74% 29.99 in 10.0 mi West 3.5 mph - N/A   Clear
9:56 PM 78.1 °F - 71.1 °F 79% 30.01 in 10.0 mi SW 3.5 mph - N/A   Clear
10:56 PM 77.0 °F - 72.0 °F 84% 30.01 in 10.0 mi SSE 4.6 mph - N/A   Clear
11:56 PM 78.1 °F - 72.0 °F 81% 30.01 in 10.0 mi Variable 4.6 mph - N/A   Clear